[[{"header":{"parameterUnit":"m.s-1","parameterCategory":1,"la1":30.2991,"la2":30.254,"lo1":-89.0895,"lo2":-89.0444,"dy":0.0017,"dx":0.0017,"nx":28,"ny":28,"refTime":"2025-02-03T09:00:00:Z","depth":0,"parameterNumber":2,"parameterNumberName":"U-component_of_WINDS"},"data":[0,0,0,0,0,0,0,0,0,0,0,0,0,0,0,0,0,0,0,0,0,0,0,0,0,0,0,0,0,0,0,0,0,0,0,0,0,0,0,0,0,0,0,0,0,0,0,0,0,0,0,0,0,0,0,0,0,0,-0.8544,-0.8545,0,-0.8608,-0.8608,-0.8609,-0.8615,-0.8614,-0.8613,-0.8613,-0.8679,-0.8681,-0.8684,0,0,0,0,0,0,0,0,0,0,0,0,0,-0.8429,-0.8431,-0.8544,-0.8545,-0.8545,-0.8607,-0.8608,-0.8609,-0.8615,-0.8614,-0.8613,-0.8613,-0.8678,-0.8681,-0.8684,0,0,0,0,0,0,0,0,0,0,0,0,0,-0.8484,-0.8431,-0.8544,-0.8556,-0.8557,-0.8607,-0.8608,-0.8609,-0.8615,-0.8614,-0.8613,-0.8612,-0.8677,-0.8681,-0.8684,-0.8727,0,0,-0.8695,-0.8697,0,0,0,0,0,0,0,0,-0.8481,-0.8488,-0.8553,-0.8555,-0.8557,-0.8602,-0.8592,-0.8649,-0.8615,-0.8593,-0.8613,-0.8612,-0.8654,-0.866,-0.8674,-0.873,-0.8733,-0.8696,-0.8698,-0.8699,-0.87,0,0,0,0,0,0,0,-0.8477,-0.8486,-0.8569,-0.8554,-0.8556,-0.8558,-0.8565,-0.8603,-0.8629,-0.8595,-0.8596,-0.8603,-0.8655,-0.867,-0.8676,-0.8734,-0.8695,-0.8699,-0.8701,-0.8702,-0.8828,-0.8829,0,0,0,0,0,0,-0.8471,-0.8482,-0.8567,-0.8571,-0.8516,-0.8561,-0.8569,-0.8589,-0.8628,-0.8633,-0.8604,-0.8603,-0.8665,-0.8671,-0.8678,-0.873,-0.8699,-0.8703,-0.8705,-0.8827,-0.8828,-0.8829,0,0,0,0,0,0,-0.8468,-0.8478,-0.8564,-0.8527,-0.8538,-0.8564,-0.8587,-0.8591,-0.8606,-0.8635,-0.864,-0.8615,-0.8664,-0.8673,-0.8714,-0.8733,-0.8704,-0.8707,-0.8825,-0.8827,-0.8829,-0.8835,0,0,0,0,0,0,-0.8465,-0.8477,-0.8493,-0.8527,-0.854,-0.86,-0.8588,-0.8592,-0.8612,-0.8611,-0.8646,-0.8651,-0.8664,-0.8709,-0.8718,-0.8737,-0.871,-0.8824,-0.8826,-0.8828,-0.8833,-0.8837,-0.884,0,0,0,0,0,-0.8461,-0.8493,-0.8494,-0.8504,-0.856,-0.8601,-0.8608,-0.8622,-0.8613,-0.863,-0.8649,-0.865,-0.8729,-0.8713,-0.8723,-0.8744,-0.8823,-0.8825,-0.8828,-0.8832,-0.8836,-0.884,0,0,0,0,0,0,-0.8461,-0.8497,-0.8499,-0.8543,-0.8569,-0.8602,-0.8623,-0.8626,-0.8655,-0.8653,-0.867,-0.8678,-0.8719,-0.8736,-0.8717,-0.8787,-0.8775,-0.878,-0.8775,-0.8779,-0.8782,-0.8777,-0.8713,0,0,0,0,0,-0.8466,-0.8495,-0.8526,-0.8561,-0.8574,-0.8596,-0.8614,-0.8623,-0.865,-0.8661,-0.8683,-0.871,-0.8741,-0.8761,-0.8791,-0.8836,-0.8844,-0.8855,-0.8858,-0.8861,-0.8865,-0.889,-0.8895,-0.8838,-0.8838,-0.8838,0,0,-0.8476,-0.85,-0.8517,-0.8562,-0.8583,-0.8613,-0.8605,-0.8637,-0.866,-0.8666,-0.8707,-0.8724,-0.8755,-0.8798,-0.8819,-0.8814,-0.8882,-0.8864,-0.8866,-0.8868,-0.8893,-0.8899,-0.8903,-0.884,-0.884,-0.8839,0,0,-0.8511,-0.8532,-0.8564,-0.8585,-0.8617,-0.8631,-0.8639,-0.8672,-0.8683,-0.8724,-0.8729,-0.8757,-0.881,-0.8832,-0.885,-0.8894,-0.8896,-0.8903,-0.892,-0.8944,-0.8949,-0.8953,-0.8969,-0.8974,-0.8907,-0.8907,-0.8907,0,-0.852,-0.8566,-0.858,-0.8612,-0.8632,-0.8638,-0.8671,-0.8691,-0.8731,-0.8745,-0.8738,-0.8805,-0.8826,-0.8875,-0.8886,-0.89,-0.891,-0.8899,-0.8947,-0.8951,-0.8955,-0.897,-0.8976,-0.8908,-0.8907,-0.8907,-0.8907,0,-0.8576,-0.8607,-0.8629,-0.8667,-0.8689,-0.8722,-0.8741,-0.8762,-0.8769,-0.8785,-0.8827,-0.8853,-0.8888,-0.8901,-0.8908,-0.8951,-0.8947,-0.8943,-0.8932,-0.8961,-0.8976,-0.8981,-0.8908,-0.8908,-0.8908,-0.8908,0,0,-0.8612,-0.8657,-0.8665,-0.8683,-0.8719,-0.8743,-0.8776,-0.8811,-0.8828,-0.8856,-0.8884,-0.8929,-0.8926,-0.8947,-0.8957,-0.8978,-0.9012,-0.8973,-0.8974,-0.8979,-0.9061,-0.9063,-0.9069,-0.9014,-0.9015,-0.9016,-0.9058,0,-0.865,-0.8709,-0.8723,-0.8773,-0.8802,-0.8809,-0.8838,-0.8863,-0.8879,-0.8906,-0.8924,-0.8955,-0.895,-0.8962,-0.8984,-0.9003,-0.9028,-0.9,-0.904,-0.9042,-0.9032,-0.9077,-0.9079,-0.9118,-0.9064,-0.9065,-0.9066,0,-0.8703,-0.8732,-0.8784,-0.8817,-0.8829,-0.8855,-0.8888,-0.8914,-0.8943,-0.8953,-0.8976,-0.8984,-0.9019,-0.9006,-0.9055,-0.9035,-0.9053,-0.9065,-0.9067,-0.9071,-0.9055,-0.9082,-0.9131,-0.9136,-0.9075,-0.9074,-0.9073,0,-0.8724,-0.8776,-0.8814,-0.8829,-0.8867,-0.8885,-0.8902,-0.893,-0.895,-0.8979,-0.8992,-0.9025,-0.9043,-0.9069,-0.9085,-0.9074,-0.9133,-0.9121,-0.9142,-0.9142,-0.9154,-0.9153,-0.9206,-0.9166,-0.9166,-0.9165,-0.9165,0,-0.8766,-0.8798,-0.8824,-0.8847,-0.8884,-0.89,-0.8936,-0.8953,-0.8978,-0.9005,-0.9014,-0.9039,-0.906,-0.9088,-0.9102,-0.914,-0.9148,-0.9158,-0.9161,-0.9157,-0.9156,-0.9168,-0.9166,-0.9167,-0.9167,-0.9166,-0.9166,0,-0.8795,-0.8814,-0.8856,-0.8889,-0.8898,-0.8923,-0.8952,-0.8975,-0.8991,-0.9026,-0.9035,-0.906,-0.9094,-0.9113,-0.9156,-0.9166,-0.9208,-0.921,-0.9198,-0.92,-0.922,-0.9218,-0.9283,-0.9292,-0.9246,-0.9246,-0.9246,0,-0.882,-0.8845,-0.8881,-0.8899,-0.8916,-0.8947,-0.8967,-0.8984,-0.9005,-0.904,-0.906,-0.9094,-0.9123,-0.9177,-0.92,-0.9233,-0.9236,-0.9256,-0.9241,-0.9236,-0.9236,-0.9234,-0.9237,-0.9259,-0.9259,-0.9259,-0.926,0,-0.8863,-0.8871,-0.89,-0.8932,-0.8957,-0.8983,-0.9009,-0.9024,-0.9046,-0.9069,-0.9104,-0.9126,-0.917,-0.9204,-0.924,-0.9258,-0.9263,-0.9264,-0.9271,-0.9267,-0.9259,-0.9264,-0.9206,-0.9263,-0.9262,-0.9262,-0.9262,-0.9262,-0.8891,-0.8914,-0.8942,-0.8974,-0.8996,-0.902,-0.9044,-0.9063,-0.9092,-0.9129,-0.9137,-0.9174,-0.9203,-0.9251,-0.927,-0.9299,-0.9295,-0.9305,-0.9307,-0.931,-0.931,-0.9255,-0.9305,-0.9305,-0.9305,-0.9305,-0.9305,0,-0.8935,-0.8953,-0.8983,-0.9019,-0.9044,-0.9046,-0.9076,-0.9097,-0.9129,-0.9155,-0.9183,-0.9224,-0.9257,-0.9282,-0.9317,-0.9336,-0.9339,-0.9344,-0.9343,-0.9347,-0.9312,-0.9302,-0.9341,-0.9341,-0.9341,-0.9341,-0.9341,-0.9341,-0.896,-0.8998,-0.901,-0.9059,-0.9078,-0.9113,-0.913,-0.9153,-0.9174,-0.9218,-0.9246,-0.9262,-0.9288,-0.9325,-0.9356,-0.9363,-0.9375,-0.938,-0.9387,-0.9353,-0.9349,-0.9346,-0.9337,-0.9382,-0.9382,-0.942,-0.942,-0.942]},{"header":{"parameterUnit":"m.s-1","parameterCategory":1,"la1":30.2991,"la2":30.254,"lo1":-89.0895,"lo2":-89.0444,"dy":0.0017,"dx":0.0017,"nx":28,"ny":28,"refTime":"2025-02-03T09:00:00:Z","depth":0,"parameterNumber":3,"parameterNumberName":"V-component_of_WINDS"},"data":[0,0,0,0,0,0,0,0,0,0,0,0,0,0,0,0,0,0,0,0,0,0,0,0,0,0,0,0,0,0,0,0,0,0,0,0,0,0,0,0,0,0,0,0,0,0,0,0,0,0,0,0,0,0,0,0,0,0,1.7424,1.7425,0,1.7473,1.7474,1.7475,1.7479,1.7478,1.7478,1.7477,1.7527,1.7529,1.7531,0,0,0,0,0,0,0,0,0,0,0,0,0,1.7334,1.7336,1.7424,1.7425,1.7426,1.7473,1.7474,1.7475,1.7479,1.7478,1.7478,1.7477,1.7527,1.7529,1.7531,0,0,0,0,0,0,0,0,0,0,0,0,0,1.7377,1.7336,1.7424,1.7433,1.7435,1.7473,1.7474,1.7475,1.7479,1.7478,1.7478,1.7477,1.7526,1.7528,1.7531,1.7563,0,0,1.7539,1.7541,0,0,0,0,0,0,0,0,1.7375,1.738,1.7431,1.7433,1.7434,1.7469,1.746,1.7505,1.7479,1.7462,1.7477,1.7477,1.7508,1.7513,1.7523,1.7566,1.7568,1.754,1.7541,1.7542,1.7543,0,0,0,0,0,0,0,1.7372,1.7378,1.7444,1.7432,1.7434,1.7435,1.744,1.7469,1.7489,1.7464,1.7464,1.747,1.7509,1.7521,1.7525,1.7569,1.754,1.7542,1.7544,1.7545,1.7641,1.7642,0,0,0,0,0,0,1.7367,1.7376,1.7442,1.7445,1.7402,1.7437,1.7443,1.7459,1.7489,1.7493,1.7471,1.747,1.7517,1.7522,1.7526,1.7567,1.7542,1.7545,1.7547,1.764,1.7641,1.7642,0,0,0,0,0,0,1.7365,1.7373,1.744,1.7411,1.7419,1.744,1.7457,1.746,1.7472,1.7494,1.7498,1.7479,1.7516,1.7523,1.7555,1.7569,1.7546,1.7549,1.7639,1.764,1.7642,1.7648,0,0,0,0,0,0,1.7362,1.7372,1.7385,1.7411,1.7421,1.7468,1.7458,1.7462,1.7477,1.7476,1.7503,1.7506,1.7516,1.755,1.7557,1.7572,1.7551,1.7638,1.764,1.7641,1.7647,1.765,1.7652,0,0,0,0,0,1.7359,1.7384,1.7385,1.7393,1.7437,1.7468,1.7474,1.7485,1.7478,1.7491,1.7505,1.7506,1.7566,1.7554,1.7561,1.7577,1.7637,1.7639,1.7641,1.7646,1.7649,1.7652,0,0,0,0,0,0,1.7359,1.7388,1.7389,1.7424,1.7444,1.7469,1.7486,1.7488,1.751,1.7509,1.7521,1.7527,1.7559,1.7571,1.7557,1.7611,1.7601,1.7604,1.7602,1.7605,1.7608,1.7604,1.7553,0,0,0,0,0,1.7363,1.7386,1.741,1.7438,1.7448,1.7465,1.7479,1.7486,1.7507,1.7515,1.7532,1.7552,1.7576,1.7591,1.7614,1.7648,1.7655,1.7663,1.7666,1.7668,1.7671,1.7691,1.7696,1.7649,1.7649,1.7649,0,0,1.7371,1.739,1.7404,1.7438,1.7454,1.7478,1.7472,1.7497,1.7515,1.7519,1.755,1.7563,1.7586,1.762,1.7636,1.7631,1.7685,1.7671,1.7672,1.7674,1.7694,1.7698,1.7702,1.765,1.765,1.765,0,0,1.7399,1.7415,1.744,1.7457,1.7482,1.7493,1.7499,1.7524,1.7533,1.7565,1.7569,1.759,1.763,1.7647,1.7661,1.7695,1.7697,1.7702,1.7716,1.7736,1.774,1.7743,1.7756,1.7761,1.7705,1.7705,1.7705,0,1.7406,1.7442,1.7453,1.7479,1.7494,1.7499,1.7525,1.754,1.7571,1.7582,1.7576,1.7628,1.7644,1.7682,1.769,1.7701,1.7709,1.77,1.7738,1.7742,1.7745,1.7758,1.7762,1.7706,1.7706,1.7706,1.7706,0,1.745,1.7475,1.7493,1.7523,1.7541,1.7566,1.7581,1.7597,1.7602,1.7614,1.7647,1.7666,1.7694,1.7703,1.7708,1.7742,1.7739,1.7736,1.7726,1.775,1.7762,1.7767,1.7707,1.7706,1.7706,1.7706,0,0,1.7479,1.7516,1.7522,1.7536,1.7564,1.7584,1.761,1.7637,1.7651,1.7672,1.7694,1.7728,1.7726,1.7742,1.7748,1.7765,1.7793,1.776,1.7761,1.7766,1.7832,1.7835,1.7841,1.7794,1.7794,1.7795,1.7831,0,1.7511,1.7558,1.7569,1.7609,1.7633,1.7637,1.766,1.768,1.7691,1.7713,1.7726,1.775,1.7745,1.7754,1.7771,1.7786,1.7806,1.7783,1.7815,1.7816,1.781,1.7847,1.785,1.7883,1.7836,1.7836,1.7837,0,1.7554,1.7577,1.762,1.7645,1.7655,1.7676,1.7702,1.7722,1.7745,1.7752,1.777,1.7775,1.7803,1.7791,1.7829,1.7813,1.7827,1.7836,1.7838,1.7842,1.7829,1.7853,1.7893,1.7899,1.7844,1.7844,1.7843,0,1.7572,1.7614,1.7645,1.7657,1.7687,1.7701,1.7714,1.7736,1.7752,1.7774,1.7785,1.781,1.7824,1.7843,1.7855,1.7846,1.7893,1.7882,1.79,1.79,1.7911,1.791,1.7955,1.7918,1.7918,1.7918,1.7918,0,1.7607,1.7633,1.7654,1.7673,1.7702,1.7714,1.7743,1.7757,1.7776,1.7798,1.7803,1.7823,1.7838,1.786,1.787,1.79,1.7906,1.7913,1.7916,1.7914,1.7913,1.7923,1.7922,1.7919,1.7919,1.7919,1.7918,0,1.7633,1.7647,1.7682,1.7708,1.7715,1.7736,1.7758,1.7777,1.7789,1.7816,1.7824,1.7842,1.7869,1.7883,1.7916,1.7922,1.7957,1.7958,1.795,1.7951,1.7969,1.7968,1.8023,1.8031,1.7988,1.7988,1.7988,0,1.7655,1.7675,1.7703,1.7719,1.7732,1.7757,1.7773,1.7786,1.7802,1.783,1.7845,1.7873,1.7895,1.7938,1.7954,1.798,1.7982,1.7999,1.7986,1.7983,1.7983,1.7982,1.7985,1.8002,1.8002,1.8003,1.8003,0,1.7692,1.7698,1.7722,1.7748,1.7768,1.7789,1.781,1.7822,1.7838,1.7856,1.7884,1.7902,1.7936,1.7963,1.799,1.8003,1.8006,1.8007,1.8013,1.8011,1.8006,1.801,1.7958,1.8006,1.8006,1.8005,1.8005,1.8005,1.7718,1.7736,1.7759,1.7785,1.7803,1.7822,1.7841,1.7856,1.7879,1.7909,1.7914,1.7944,1.7966,1.8002,1.8017,1.804,1.8036,1.8044,1.8047,1.8049,1.805,1.8002,1.8045,1.8045,1.8045,1.8045,1.8045,0,1.7756,1.7771,1.7795,1.7825,1.7845,1.7846,1.7869,1.7886,1.7913,1.7933,1.7955,1.7987,1.8014,1.8032,1.8059,1.8074,1.8076,1.8081,1.8081,1.8084,1.8051,1.8044,1.8079,1.8079,1.8079,1.8079,1.8079,1.8079,1.7779,1.7811,1.782,1.7861,1.7875,1.7905,1.7918,1.7936,1.7953,1.7989,1.8011,1.8023,1.8043,1.8071,1.8095,1.81,1.811,1.8115,1.812,1.809,1.8086,1.8083,1.8076,1.8117,1.8117,1.8151,1.8151,1.8151]}]]